Timeline UpdatesTrip UpdatesNews PostsPvt Posts♥♥Travel TipsAdmin PostsConv PostsFollowed PostsChat RequestsBlog PostsPNR Posts

Disclaimer
Search
 
 
Sat Nov 22, 2014 08:21:35 ISTHomeTrainsΣChainsAtlasPNRForumGalleryNewsFAQTripsMembersLoginFeedback
No Recent News for this Train
Other Trains in the News **new
Latest...
Temporary Stop at Vindhyachal (BDL) for 2 minutes from 25/9/14-6/10/14 #1223333.
Wed Sep 24, 2014 (11:33PM)
⇐ Return Journey: Train# 15648

15647/Mumbai LTT-Guwahati Weekly Express

Time-Table HAS CHANGED.
Sep 24 2014 (11:33PM)
Change Departure Station:
Change Arrival Station:
Post a Train Travel TipPost a Train Travel Tip **new
Post a Comment/Question/Picture/VideoPost a Comment/Question/Picture/Video
Pantry/Catering
✓ Pantry Car Avbl
✓ Catering Avbl
RSA - Rake Sharing
Rake/Coach Composition
2A-1; 3A-3; SL-12; GEN-3; PC-1; SLR-2 :: 22 COACH
Loco
ET-GHY =>ET WDMx
News    PNR    Forum    Time-Table    Availability    Fare Chart    Map    Arr/Dep History    Trips    Gallery    ΣChains    X/O    Timeline    
Travel Time: 52h 55m    52 halts    Distance: 2739 km    Avg Speed: 51 km/hr
Type: Mail/Express
Zone: NFR/Northeast Frontier
Departs @ 08:05 (Avg on time)
Platform# 5
     F 
Mumbai Lokmanya Tilak Terminus/LTT 
Arrives @ 13:00 +2 nights (Avg 6m late)
Platform# ???
S      
Guwahati/GHY 

52 halts. 436 intermediate Stations between Mumbai Lokmanya Tilak Terminus and Guwahati

Show ALL intermediate Stations  Show Old Time-Table

#TrkCodeStation NameX/OArrivesAvgDepartsAvgHaltPFDay#KmSpeedElevZoneAddress
1/==/LTTMumbai Lokmanya Tilak Terminus (5)»  -08:05+0510.0737mCRMumbai - 400089, Maharashtra
2/==/KYNKalyan Junction (8)X  08:35+2308:40+235m4136.74710mCRKalyan 421301, Maharashtra
3/==/IGPIgatpuri (4)X10:35 10:25+1310:40 10:30+175m21118.571589mCRIgatpuri 422403, Maharashtra
4/==/DVLDevlali (3)X  11:08+2511:10+262m11163.423561mCRDist. Nashik 422401, Maharashtra
5/==/NKNasik Road (3)  11:28 11:25+1611:30+152 5m11169.197563mCRNashik 422101, Maharashtra
6/==/MMRManmad Junction (6)  12:25 12:15+2612:30 12:20+255m11241.985580mCRManmad 423104, Maharashtra
7/==/BSLBhusaval Junction (8)X  14:45 14:30+2614:55 14:40+3310m--1426.176208mCRBhusaval 425201, Maharashtra
8/==/BAUBurhanpur (2)  15:38 15:23+5415:40 15:25+542m21480.634269mCRBurhanpur, Madhya Pradesh
9/==/KNWKhandwa Junction (5)  17:35 17:25+217:40 17:30+35m--1549.595310mCRKhandwa, Madhya Pradesh
10/==/HDHarda (3)  18:38+1718:40+172m--1657.157289mWCRHarda, Madhya Pradesh
11/==/ETItarsi Junction (7)X20:00-120:10+810m--1732.972329mWCRItarsi 461111, Madhya Pradesh
12|==|PPIPipariya (3)  21:06+3421:08+342m--1800.181338mWCRPiparia, Madhya Pradesh
13|==|JBPJabalpur Junction (4)X  23:20+3223:30+3310m41977.978416mWCRJabalpur, Madhya Pradesh
14|==%KTEKatni Junction (6)X  00:40+4500:45+485m--21068.774387mWCRKatni, Madhya Pradesh
15%==%STASatna Junction (3)XO  02:10 02:05+4402:20 02:15+4110m--21167.147322mWCRSatna, Madhya Pradesh
16|==|COIChheoki Junction (3)  06:05 05:50+1406:10 05:55+175m--21337.18096mNCRDist.-Allahabad, Uttar Pradesh
17/==/MZPMirzapur (3)X  07:10 06:55+3107:15 07:00+335m--21417.53388mNCRMirzapur, Uttar Pradesh
18/==/MGSMughal Sarai Junction (8)  08:55+809:10+915m--21480.77583mECRDistt: Chandauli Pin 232101, Uttar Pradesh
19/==/DLNDildarnagar Junction (2)X  09:56+1809:58+192m--21538.48072mECRDildarnagar, Uttar Pradesh
20/==/BXRBuxar (3)  10:25+2210:27+282m--21574.68967mECRBuxar, Bihar
21/==/DUREDumraon (3)  10:38+3710:40+392m--21590.98970mECRDumraon, Bihar
22/==/ARAAra Junction (3)  11:19 11:15+5711:21 11:17+572m--21643.17963mECRDistt: Bhojpur Ph 06182-233411, Bihar
23/==/DNRDanapur (5)X  11:47+1:1411:57+1:1710m--21682.61158mECRKhagaul, Bihar
24/==/PNBEPatna Junction (10)X  12:50+5213:00+5610m821692.03557mECRPatna 800001, Bihar
25/==/PNCPatna Saheb (3)  13:17+1:0913:19+1:092m--21701.94359mECRPatna 800008, Bihar
26/==/FUTFatwa (6)  13:36+1:0613:38+1:082m--21714.16353mECRPatna, Bihar
27/==/KOOKhusropur (2)  13:46+1:1013:48+1:112m--21722.66452mECRPatna, Bihar
28/==/BKPBakhtiyarpur Junction (5)  14:02+1:1714:04+1:202m--21737.46051mECRPatna, Bihar
29/==/BARHBarh (3)  14:22+1:2614:24+1:262m--21755.54349mECRBarh, Bihar
30/==/MKAMokama Junction (4)X  15:00+1:1315:05+1:105m--21781.35648mECRPatna, Bihar
31/==/HTZHathidah Junction (2)  15:14+1:1315:16+1:132m121789.66350mECRMusahari, Bihar
32/==/BRYABarhiya (3)  15:25+1:1415:27+1:142m--21799.03547mECRBarahiya, Bihar
33/==/LKRLuckeesarai Junction (2)  15:53+1:2015:55+1:192m--21814.1852mECRLakhisarai, Bihar
34/==/KIULKiul Junction (5)X  16:05+5216:12+507m--21815.55153mECRDist. Lakhisarai, Bihar
35|==|AHAAbhaipur (3)  16:39+1:0016:41+1:002m--21838.54252mERAbhaipur, Bihar
36|=-|JMPJamalpur Junction (4)X  17:12+5617:27+5015m--21860.36159mERDist: Munger 06344-243101, Bihar
37|==|BUPBariarpur (3)  17:38+5617:40+562m--21871.45442mERMunger, Bihar
38|==|SGGSultanGanj (3)  18:00+4818:02+482m--21889.44542mERSultanganj, Bihar
39|==!BGPBhagalpur Junction (6)  18:35+3118:50+3315m--21914.36949mERBhagalpur, Bihar
40!==!CLGKahalgaon (2)X  19:16+5819:18+582m121944.43944mERBhagalpur, Bihar
41!==!SBGSahibganj Junction (3)  20:25+3620:35+4110m121988.34538mERSahibganj, Jharkhand
42|==|BHWBarharwa Junction (3)  21:48+4521:50+452m222042.74036mERBarharwa, Jharkhand
43%==%NFKNew Farakka Junction (3)  22:17+5122:19+582m222060.73532mERDist - Murshidabad, West Bengal
44%==%MLDTMalda Town (5)X  23:20+2023:35+1815m--22095.87430mERDist - Malda, West Bengal
45%==%KNEKishanGanj (3)  01:35+3801:40+385m--32244.05052mNFRKishanganj, Bihar
46%==|NJPNew Jalpaiguri Junction (8)X  03:25+1503:40+1415m--32331.352114mNFRCity-Siliguri . Dist-Jalpaiguri, West Bengal
47|--|DQGDhupguri (2)  05:00 04:55+1:0305:05 05:00+1:025m--32396.66075mNFRDist - Jalpaiguri, West Bengal
48!==!NCBNew Cooch Behar Junction (5)  06:05 06:00+4706:10 06:05+475m--32456.85647mNFRDist : Cooch Behar-736101, West Bengal
49!==!NOQNew Alipurduar (2)  06:35 06:25+5506:40 06:30+555m--32475.44948mNFRDist - Alipurduar - 736121, West Bengal
50|=-|NBQNew Bongaigaon Junction (4)  08:40+5808:50+5510m--32582.14658mNFR783381., Assam
51|--|BPRDBarpeta Road  09:52 09:47+4909:57 09:52+485m--32626.24749mNFRHowli, Assam
52|--|RNYRangiya Junction (5)  11:15+4611:25+4310m--32691.13858mNFRRangia, Assam
53|-=|KYQKamakhya Junction (4)  12:30+5512:35+565m--32731.81755mNFRDist - KAMRUP, Assam
54|==|GHYGuwahati (7)•  13:00+6---32738.7-60mNFRGuwahati, Assam
Scroll to Top
Scroll to Bottom